Location: Unspecified
(0.0000°N, 0.0000°E)
Time: 02:30:12
(UTC+00:00)

deb r/b Ablestar - Pass Details

Date: 26 December 2025
Orbit: 815 x 921 km, 66.9° (Epoch: 13 January)

Event Time Altitude Azimuth Distance (km) Brightness Sun altitude
Rises 18:30:43 0° 225° (SW) 3,534 ? -6.9°
Reaches altitude 10° 18:33:42 10° 238° (WSW) 2,600 ? -7.5°
Maximum altitude 18:38:25 24° 290° (WNW) 1,814 ? -8.6°
Drops below altitude 10° 18:43:09 10° 341° (NNW) 2,604 ? -9.7°
Sets 18:46:11 0° 355° (N) 3,540 ? -10.4°
